This is the latest recevied weather packets stored in our database for station/object KC4LZN. If no packets are shown the sender has not sent any weather packets the latest 10 day(s).
| Time | Temp. | Humidity | Pressure | Rain* | Wind** | Luminosity | Snow |
|---|---|---|---|---|---|---|---|
| 1777919569 | 28.89° C | 42% | 1017 hPa | 0 mm | - | 872 W/m² | - |
| 1777919267 | 27.78° C | 44% | 1017.2 hPa | 0 mm | - | 921 W/m² | - |
| 1777918964 | 27.22° C | 41% | 1017.1 hPa | 0 mm | - | 958 W/m² | - |
| 1777918661 | 26.67° C | 44% | 1017.2 hPa | 0 mm | - | 977 W/m² | - |
| 1777918359 | 26.11° C | 45% | 1017.4 hPa | 0 mm | - | 345 W/m² | - |
| 1777918058 | 26.67° C | 42% | 1017.4 hPa | 0 mm | - | 215 W/m² | - |
| 1777917756 | 26.67° C | 42% | 1017.4 hPa | 0 mm | - | 1075 W/m² | - |
| 1777917453 | 28.33° C | 39% | 1017.4 hPa | 0 mm | - | 905 W/m² | - |
| 1777917150 | 27.78° C | 40% | 1017.4 hPa | 0 mm | - | 1011 W/m² | - |
| 1777916848 | 27.22° C | 40% | 1017.6 hPa | 0 mm | - | 970 W/m² | - |
| 1777916546 | 26.67° C | 42% | 1017.4 hPa | 0 mm | - | 498 W/m² | - |
| 1777916241 | 27.22° C | 41% | 1017.2 hPa | 0 mm | - | 794 W/m² | - |
| 1777915939 | 26.67° C | 41% | 1017.6 hPa | 0 mm | - | 916 W/m² | - |
| 1777915635 | 26.67° C | 44% | 1017.8 hPa | 0 mm | - | 879 W/m² | - |
| 1777915332 | 27.22° C | 44% | 1017.7 hPa | 0 mm | - | 880 W/m² | - |
| 1777915028 | 26.67° C | 43% | 1017.6 hPa | 0 mm | - | 648 W/m² | - |
| 1777914726 | 27.22° C | 43% | 1017.6 hPa | 0 mm | - | 898 W/m² | - |
| 1777914422 | 27.22° C | 43% | 1017.6 hPa | 0 mm | - | 938 W/m² | - |
| 1777914120 | 26.67° C | 45% | 1017.6 hPa | 0 mm | - | 885 W/m² | - |
| 1777913815 | 26.67° C | 44% | 1017.9 hPa | 0 mm | - | 889 W/m² | - |
| 1777913512 | 26.11° C | 42% | 1018.1 hPa | 0 mm | - | 861 W/m² | - |
| 1777913209 | 26.11° C | 42% | 1017.8 hPa | 0 mm | - | 881 W/m² | - |
| 1777912904 | 26.11° C | 41% | 1018.1 hPa | 0 mm | - | 874 W/m² | - |
| 1777912602 | 26.67° C | 42% | 1018.4 hPa | 0 mm | - | 858 W/m² | - |
| 1777912298 | 26.11° C | 41% | 1018.2 hPa | 0 mm | - | 862 W/m² | - |
* Rain latest hour (hover to see other rain measurements)
** Current wind speed in m/s (hover to see current wind gust speed)